Location: Unspecified
(0.0000°N, 0.0000°E)
Time: 22:54:03
(UTC+00:00)

Altair - All Passes

Search period start: 19 November 2019 00:00
Search period end: 29 November 2019 00:00
Orbit: 1502 x 1682 km, 47.2° (Epoch: 17 November)

Date Brightness Start Highest point End Pass type
(mag) Time Alt. Az. Time Alt. Az. Time Alt. Az.
19 Nov - 01:49:44 10° W 01:55:48 19° NW 02:01:50 10° N night (unlit)
19 Nov - 10:26:54 10° NNW 10:35:28 36° NE 10:44:17 10° ESE daylight
19 Nov - 12:30:42 10° WNW 12:40:05 51° SW 12:49:48 10° SSE daylight
19 Nov - 21:16:42 10° SSE 21:20:48 13° SE 21:24:50 10° ESE visible
19 Nov - 23:16:24 10° SSW 23:26:01 74° SE 23:35:15 10° NE visible
20 Nov - 01:23:53 10° W 01:30:36 22° NW 01:37:13 10° N night (unlit)
20 Nov - 10:02:03 10° N 10:10:16 32° NE 10:18:42 10° ESE daylight
20 Nov - 12:05:23 10° NW 12:14:53 57° SW 12:24:44 10° SSE daylight
20 Nov - 20:52:53 10° SSE 20:55:30 11° SE 20:58:04 10° ESE visible
20 Nov - 22:51:18 10° SSW 23:00:52 66° SE 23:10:03 10° NE visible
21 Nov - 00:58:08 10° W 01:05:23 25° NW 01:12:33 10° N night (unlit)
21 Nov - 09:37:15 10° N 09:45:04 28° NE 09:53:04 10° ESE daylight
21 Nov - 11:40:07 10° NW 11:49:42 63° SW 11:59:39 10° SSE daylight
21 Nov - 13:52:46 10° WSW 13:55:14 11° SW 13:57:42 10° SSW daylight
21 Nov - 22:26:13 10° SSW 22:35:42 59° SE 22:44:48 10° NE visible
22 Nov - 00:32:29 10° WSW 00:40:13 28° NW 00:47:48 10° N night (unlit)
22 Nov - 09:12:31 10° N 09:19:51 25° NE 09:27:21 10° E daylight
22 Nov - 11:14:53 10° NW 11:24:30 71° SW 11:34:31 10° SSE daylight
22 Nov - 13:25:49 10° WSW 13:29:53 13° SW 13:34:01 10° SSW daylight
22 Nov - 22:01:09 10° SSW 22:10:32 53° SE 22:19:32 10° NE visible
23 Nov - 00:06:53 10° WSW 00:15:02 32° NW 00:23:00 10° N night (unlit)
23 Nov - 08:47:50 10° N 08:54:37 21° NE 09:01:32 10° E daylight
23 Nov - 10:49:40 10° NW 10:59:19 78° SW 11:09:22 10° SE daylight
23 Nov - 12:59:26 10° WSW 13:04:34 15° SW 13:09:47 10° SSW daylight
23 Nov - 21:36:07 10° SSW 21:45:21 47° SE 21:54:13 10° ENE visible
23 Nov - 23:41:21 10° WSW 23:49:51 36° NW 23:58:09 10° NNE night (unlit)
24 Nov - 08:23:15 10° N 08:29:23 19° NE 08:35:37 10° E daylight
24 Nov - 10:24:30 10° NW 10:34:08 86° SW 10:44:11 10° SE daylight
24 Nov - 12:33:20 10° W 12:39:16 17° SW 12:45:20 10° S daylight
24 Nov - 21:11:06 10° SSW 21:20:10 42° SE 21:28:51 10° ENE visible
24 Nov - 23:15:52 10° WSW 23:24:41 41° NW 23:33:15 10° NNE visible
25 Nov - 07:58:49 10° NNE 08:04:08 16° NE 08:09:33 10° E daylight
25 Nov - 09:59:22 10° NW 10:08:58 85° NE 10:18:59 10° SE daylight
25 Nov - 12:07:23 10° W 12:13:58 20° SW 12:20:43 10° S daylight
25 Nov - 20:46:08 10° SSW 20:54:58 37° SE 21:03:27 10° ENE visible
25 Nov - 22:50:26 10° WSW 22:59:32 46° NW 23:08:19 10° NNE visible
26 Nov - 07:34:33 10° NNE 07:38:53 14° NE 07:43:15 10° ENE daylight
26 Nov - 09:34:16 10° NW 09:43:48 77° NE 09:53:44 10° SE daylight
26 Nov - 11:41:36 10° W 11:48:42 23° SW 11:56:01 10° S daylight
26 Nov - 20:21:12 10° SSW 20:29:46 33° SE 20:37:59 10° ENE visible
26 Nov - 22:25:03 10° SW 22:34:23 52° NW 22:43:22 10° NNE visible
27 Nov - 07:10:44 10° NNE 07:13:36 12° NE 07:16:29 10° ENE daylight
27 Nov - 09:09:12 10° NNW 09:18:38 69° NE 09:28:28 10° SE daylight
27 Nov - 11:15:54 10° W 11:23:27 25° SW 11:31:15 10° S daylight
27 Nov - 19:56:18 10° S 20:04:32 30° SE 20:12:29 10° ENE visible
27 Nov - 21:59:42 10° SW 22:09:13 59° NW 22:18:23 10° NNE visible
28 Nov - 08:44:09 10° NNW 08:53:28 62° NE 09:03:10 10° SE daylight
28 Nov - 10:50:16 10° WNW 10:58:12 29° SW 11:06:24 10° S daylight
28 Nov - 19:31:27 10° S 19:39:19 26° SE 19:46:54 10° E visible
28 Nov - 21:34:23 10° SW 21:44:03 66° NW 21:53:21 10° NNE visible
28 Nov - 23:47:29 10° NW 23:49:07 10° NW 23:50:46 10° NW night (unlit)
